Stockton, CA

9:56 AM PDT on April 23, 2017 (GMT -0700)
Stockton Metro

Weather History for KSCK - April, 2014

Change the Weather History Date:

Friday, April 4, 2014

  Actual Average Record
Temperature  
Mean Temperature 53 °F -  
Max Temperature 60 °F 70 °F 88 °F (1960)
Min Temperature 46 °F 44 °F 37 °F (1975)
Degree Days  
Heating Degree Days 12 8  
Month to date heating degree days 51 34  
Since 1 July heating degree days 2083 2420  
Cooling Degree Days 0 0  
Month to date cooling degree days 0 0  
Year to date cooling degree days 0 0  
Growing Degree Days 3 (Base 50)    
Moisture  
Dew Point 46 °F    
Average Humidity 81    
Maximum Humidity 100    
Minimum Humidity 62    
Precipitation  
Precipitation 0.04 in 0.05 in 1.02 in (2006)
Month to date precipitation 0.40 0.18  
Year to date precipitation 5.37 7.62  
Since 1 July precipitation 7.08  
Snow  
Snow 0.00 in - - ()
Month to date snowfall 0.0  
Since 1 July snowfall 0.0  
Snow Depth -    
Sea Level Pressure  
Sea Level Pressure 30.01 in    
Wind  
Wind Speed 4 mph (WNW)    
Max Wind Speed 15 mph    
Max Gust Speed 20 mph    
Visibility 10 miles    
Events Rain    
T = Trace of Precipitation, MM = Missing Value Source: NWS Daily Summary

Daily Weather History Graph

Daily Weather History Graph

Search for Another Location

Airport or City:

Trip Planner

Search our weather history database for the weather conditions in past years. The results will help you decide how hot, cold, wet, or windy it might be!

Date:

Astronomy

Apr. 04, 2014 Rise Set
Actual Time 6:45 AM PDT 7:30 PM PDT
Civil Twilight 6:18 AM PDT 7:57 PM PDT
Nautical Twilight 5:47 AM PDT 8:28 PM PDT
Astronomical Twilight 5:15 AM PDT 9:01 PM PDT
Moon 10:10 AM PDT (4/4) No Moon Set
Length of Visible Light 13h 38m
Length of Day
12h 45m
Waxing Crescent, 26% of the Moon is Illuminated
Apr 4
Waxing Crescent
Apr 7
First Quarter
Apr 15
Full
Apr 22
Last Quarter
Apr 28
New

Hourly Weather History & Observations

Time (PDT) Temp. Dew Point Humidity Pressure Visibility Wind Dir Wind Speed Gust Speed Precip Events Conditions
12:55 AM 53.1 °F 46.0 °F 77% 30.04 in 10.0 mi North 5.8 mph - N/A   Overcast
1:55 AM 51.1 °F 46.0 °F 83% 30.02 in 10.0 mi NE 3.5 mph - N/A   Mostly Cloudy
2:55 AM 50.0 °F 45.0 °F 83% 30.01 in 10.0 mi NNE 3.5 mph - N/A   Partly Cloudy
3:55 AM 48.0 °F 45.0 °F 89% 29.99 in 10.0 mi NE 3.5 mph - N/A   Clear
4:55 AM 46.0 °F 44.1 °F 93% 29.98 in 10.0 mi Calm Calm - N/A   Partly Cloudy
5:55 AM 46.9 °F 45.0 °F 93% 29.98 in 10.0 mi Calm Calm - N/A   Overcast
6:55 AM 46.9 °F 46.0 °F 97% 29.99 in 10.0 mi WSW 4.6 mph - N/A   Overcast
7:55 AM 48.9 °F 46.0 °F 90% 30.00 in 10.0 mi Calm Calm - N/A   Mostly Cloudy
8:55 AM 51.1 °F 46.9 °F 86% 30.01 in 10.0 mi Calm Calm - 0.00 in Rain Light Rain
9:55 AM 52.0 °F 48.0 °F 86% 30.02 in 10.0 mi Calm Calm - 0.00 in Rain Light Rain
10:55 AM 54.0 °F 46.9 °F 77% 30.03 in 10.0 mi Calm Calm - 0.01 in   Overcast
11:55 AM 57.0 °F 45.0 °F 64% 30.02 in 10.0 mi Variable 6.9 mph - N/A   Scattered Clouds
12:55 PM 57.0 °F 46.0 °F 67% 30.01 in 10.0 mi Calm Calm - N/A   Overcast
1:55 PM 57.0 °F 48.9 °F 74% 30.01 in 10.0 mi WSW 5.8 mph - 0.03 in Rain Light Rain
2:55 PM 57.9 °F 48.9 °F 72% 30.00 in 10.0 mi Calm Calm - 0.00 in   Overcast
3:55 PM 57.9 °F 46.0 °F 65% 29.99 in 10.0 mi WNW 8.1 mph - N/A   Overcast
4:55 PM 57.9 °F 45.0 °F 62% 29.99 in 10.0 mi WNW 8.1 mph - N/A   Partly Cloudy
5:55 PM 59.0 °F 45.0 °F 60% 29.98 in 10.0 mi West 5.8 mph - N/A   Partly Cloudy
6:55 PM 55.9 °F 45.0 °F 67% 29.99 in 10.0 mi NW 9.2 mph - N/A   Partly Cloudy
7:55 PM 53.1 °F 46.0 °F 77% 30.00 in 10.0 mi West 8.1 mph - N/A   Clear
8:55 PM 53.1 °F 46.0 °F 77% 30.02 in 10.0 mi West 8.1 mph - N/A   Mostly Cloudy
9:55 PM 51.1 °F 46.9 °F 86% 30.03 in 10.0 mi West 6.9 mph - N/A   Partly Cloudy
10:55 PM 50.0 °F 46.9 °F 89% 30.04 in 10.0 mi West 8.1 mph - N/A   Clear
11:55 PM 48.0 °F 45.0 °F 89% 30.04 in 10.0 mi WNW 5.8 mph - N/A   Clear